Weather in Marfovka

Russia / Republic of Crimea     45°11′53″N   36°05′26″E
temp.,
°C
wind,
m/s
gust,
m/s
humid.,
%
clouds,
%
prec.,
mm/h
press.,
hPa
HPBL,
m
23 october, sat
sat2300:00+13ssw359685 0.0 101993
03:00+13ssw349519 0.0 101877
06:00+13ssw3696100 0.0 1017122
09:00+15ssw4686100 0.0 1018339
12:00+18sw5462100 0.0 1018670
15:00+19sw3356100 0.0 1018842
18:00+15ssw357890 0.0 101893
21:00+15wsw3676100 0.0 1019139
24 october, sun
sun2400:00+13nne5885100 0.1 1020281
03:00+12nne3691100 0.2 1020277
06:00+12nne2490100 0.1 1020201
09:00+13n4576100 0.1 1021488
12:00+11n81174100 1.8 1022804
15:00+10n71064100 4.7 10211197
18:00+9n486797 0.4 10231065
21:00+9nnw6115448 0.4 1025354
25 october, mon
mon2500:00+8nnw5106013 0.2 1026284
03:00+7nnw59715 0.3 1027268
06:00+7nnw597523 0.1 1029295
09:00+8nnw566186 0.2 10301240
12:00+8nnw5557100 0.0 10311182
15:00+8n5653100 0.0 10311449
18:00+6n35645 0.0 1032141
21:00+5ne12615 0.0 103211
26 october, tue
tue2600:00+5ene22625 0.0 103212
03:00+4ne22685 0.0 103215
06:00+4ene22695 0.0 103217
09:00+7ene47570 0.0 1032639
12:00+10e66450 0.0 1031999
15:00+10e67460 0.0 1029971
18:00+8ene48590 0.0 1028191
21:00+7e49610 0.0 1028210
27 october, wed
wed2700:00+6e49660 0.0 1027199
03:00+6e49680 0.0 1026192
06:00+5ene49740 0.0 1025189
09:00+8e58650 0.0 1025387
12:00+12e22530 0.0 1024572
15:00+14ese01465 0.0 1022829
18:00+10ese12655 0.0 102218
21:00+8w117487 0.0 102214